| time (UTC) | temp C | wind direction | speed KPH | gust KPH | rain 1hr cm | rain 24hr cm | rain mn cm | humidity % | barometer mb |
| 20260507193319 | 18 | 358 | 14.5 | 25.7 | 0.00 | 1.04 | 0.00 | 30 | 1016.0 |
| 20260507192820 | 19 | 321 | 11.3 | 25.7 | 0.00 | 1.04 | 0.00 | 29 | 1016.1 |
| 20260507192322 | 19 | 234 | 11.3 | 20.9 | 0.00 | 1.04 | 0.00 | 31 | 1016.0 |
| 20260507191821 | 18 | 268 | 4.8 | 19.3 | 0.00 | 1.04 | 0.00 | 34 | 1016.2 |
| 20260507191323 | 18 | 358 | 8.0 | 16.1 | 0.00 | 1.04 | 0.00 | 33 | 1016.2 |
| 20260507190824 | 18 | 358 | 4.8 | 19.3 | 0.00 | 1.04 | 0.00 | 34 | 1016.2 |
| 20260507190324 | 17 | 230 | 6.4 | 19.3 | 0.00 | 1.04 | 0.00 | 31 | 1016.3 |
| 20260507185845 | 17 | 256 | 8.0 | 22.5 | 0.00 | 1.22 | 0.00 | 32 | 1016.2 |
| 20260507185326 | 17 | 247 | 9.7 | 22.5 | 0.00 | 1.22 | 0.00 | 33 | 1016.4 |
| 20260507184826 | 17 | 358 | 9.7 | 22.5 | 0.00 | 1.22 | 0.00 | 33 | 1016.3 |
| 20260507184327 | 17 | 358 | 9.7 | 17.7 | 0.00 | 1.22 | 0.00 | 33 | 1016.4 |
| 20260507183832 | 17 | 212 | 9.7 | 17.7 | 0.00 | 1.22 | 0.00 | 33 | 1016.4 |
| 20260507183352 | 17 | 358 | 6.4 | 19.3 | 0.00 | 1.22 | 0.00 | 34 | 1016.4 |
| 20260507182832 | 17 | 358 | 6.4 | 22.5 | 0.00 | 1.22 | 0.00 | 34 | 1016.5 |
| 20260507182314 | 17 | 358 | 14.5 | 22.5 | 0.00 | 1.22 | 0.00 | 33 | 1016.5 |
| 20260507181816 | 17 | 358 | 8.0 | 24.1 | 0.00 | 1.22 | 0.00 | 34 | 1016.5 |
| 20260507181337 | 17 | 227 | 12.9 | 24.1 | 0.00 | 1.22 | 0.00 | 33 | 1016.4 |
| 20260507180819 | 17 | 358 | 8.0 | 17.7 | 0.00 | 1.22 | 0.00 | 33 | 1016.6 |
| 20260507180336 | 17 | 358 | 8.0 | 17.7 | 0.00 | 1.22 | 0.00 | 34 | 1016.7 |
| 20260507175818 | 16 | 358 | 4.8 | 19.3 | 0.00 | 1.32 | 0.00 | 36 | 1016.7 |
| 20260507175319 | 17 | 358 | 12.9 | 19.3 | 0.00 | 1.32 | 0.00 | 35 | 1016.7 |
| 20260507174822 | 17 | 358 | 8.0 | 17.7 | 0.00 | 1.32 | 0.00 | 36 | 1016.7 |
| 20260507174343 | 17 | 234 | 6.4 | 17.7 | 0.00 | 1.32 | 0.00 | 35 | 1016.7 |
| 20260507173822 | 16 | 358 | 6.4 | 17.7 | 0.00 | 1.32 | 0.00 | 35 | 1016.7 |
| 20260507173321 | 16 | 358 | 8.0 | 14.5 | 0.00 | 1.32 | 0.00 | 37 | 1016.8 |
| 20260507172823 | 16 | 187 | 8.0 | 16.1 | 0.00 | 1.32 | 0.00 | 38 | 1016.9 |
| 20260507172324 | 15 | 213 | 6.4 | 17.7 | 0.00 | 1.32 | 0.00 | 39 | 1016.9 |
| 20260507171828 | 15 | 227 | 11.3 | 17.7 | 0.00 | 1.32 | 0.00 | 38 | 1016.9 |
| 20260507171350 | 15 | 358 | 8.0 | 20.9 | 0.00 | 1.32 | 0.00 | 38 | 1017.1 |
| 20260507170829 | 15 | 358 | 11.3 | 22.5 | 0.00 | 1.32 | 0.00 | 37 | 1017.1 |
| 20260507170331 | 15 | 358 | 11.3 | 22.5 | 0.00 | 1.32 | 0.00 | 37 | 1017.1 |
| 20260507165813 | 15 | 358 | 6.4 | 19.3 | 0.00 | 1.50 | 0.00 | 39 | 1017.1 |
| 20260507165334 | 15 | 358 | 11.3 | 19.3 | 0.00 | 1.50 | 0.00 | 39 | 1017.3 |
| 20260507164813 | 15 | 358 | 11.3 | 22.5 | 0.00 | 1.50 | 0.00 | 39 | 1017.3 |
| 20260507164314 | 15 | 358 | 9.7 | 19.3 | 0.00 | 1.50 | 0.00 | 39 | 1017.3 |
| 20260507163815 | 14 | 231 | 6.4 | 19.3 | 0.00 | 1.50 | 0.00 | 40 | 1017.4 |
| 20260507163335 | 14 | 218 | 11.3 | 17.7 | 0.00 | 1.50 | 0.00 | 39 | 1017.4 |
| 20260507162817 | 14 | 234 | 11.3 | 16.1 | 0.00 | 1.50 | 0.00 | 40 | 1017.4 |
| 20260507162339 | 13 | 200 | 9.7 | 17.7 | 0.00 | 1.50 | 0.00 | 40 | 1017.5 |
| 20260507161819 | 13 | 358 | 8.0 | 19.3 | 0.00 | 1.50 | 0.00 | 41 | 1017.5 |
| 20260507161320 | 13 | 358 | 9.7 | 19.3 | 0.00 | 1.50 | 0.00 | 41 | 1017.5 |
| 20260507160314 | 12 | 228 | 9.7 | 17.7 | 0.00 | 1.50 | 0.00 | 41 | 1017.7 |
| 20260507155814 | 12 | 213 | 9.7 | 17.7 | 0.00 | 1.52 | 0.00 | 41 | 1017.7 |
| 20260507155316 | 12 | 358 | 8.0 | 16.1 | 0.00 | 1.52 | 0.00 | 42 | 1017.7 |
| 20260507154817 | 12 | 190 | 6.4 | 14.5 | 0.00 | 1.52 | 0.00 | 43 | 1017.8 |
| 20260507154338 | 12 | 235 | 9.7 | 17.7 | 0.00 | 1.52 | 0.00 | 42 | 1017.8 |
| 20260507153818 | 12 | 234 | 9.7 | 17.7 | 0.00 | 1.52 | 0.00 | 42 | 1017.9 |
| 20260507153317 | 12 | 238 | 8.0 | 17.7 | 0.00 | 1.52 | 0.00 | 43 | 1017.8 |
| 20260507152817 | 11 | 200 | 9.7 | 17.7 | 0.00 | 1.52 | 0.00 | 42 | 1017.8 |
| 20260507152319 | 11 | 219 | 9.7 | 17.7 | 0.00 | 1.52 | 0.00 | 43 | 1017.9 |
| 20260507151819 | 11 | 219 | 8.0 | 20.9 | 0.00 | 1.52 | 0.00 | 43 | 1017.9 |
| 20260507151319 | 11 | 222 | 11.3 | 20.9 | 0.00 | 1.52 | 0.00 | 43 | 1017.9 |
| 20260507150821 | 11 | 358 | 9.7 | 20.9 | 0.00 | 1.52 | 0.00 | 43 | 1017.9 |
| 20260507150321 | 10 | 200 | 9.7 | 17.7 | 0.00 | 1.52 | 0.00 | 44 | 1017.9 |
| 20260507145823 | 10 | 190 | 8.0 | 16.1 | 0.00 | 1.52 | 0.00 | 44 | 1018.0 |
| 20260507145324 | 10 | 358 | 9.7 | 19.3 | 0.00 | 1.52 | 0.00 | 44 | 1017.9 |
| 20260507144827 | 10 | 358 | 11.3 | 19.3 | 0.00 | 1.52 | 0.00 | 45 | 1017.9 |
| 20260507144327 | 10 | 358 | 9.7 | 20.9 | 0.00 | 1.52 | 0.00 | 45 | 1018.0 |
| 20260507143847 | 9 | 207 | 9.7 | 19.3 | 0.00 | 1.52 | 0.00 | 45 | 1017.9 |
| 20260507143327 | 9 | 239 | 11.3 | 19.3 | 0.00 | 1.52 | 0.00 | 45 | 1018.0 |
| 20260507142849 | 8 | 215 | 11.3 | 22.5 | 0.00 | 1.52 | 0.00 | 46 | 1018.0 |
| 20260507142330 | 8 | 229 | 11.3 | 24.1 | 0.00 | 1.52 | 0.00 | 46 | 1017.9 |
| 20260507141831 | 8 | 224 | 11.3 | 24.1 | 0.00 | 1.52 | 0.00 | 46 | 1017.8 |
| 20260507141313 | 8 | 236 | 14.5 | 20.9 | 0.00 | 1.52 | 0.00 | 47 | 1017.8 |
| 20260507140814 | 8 | 206 | 9.7 | 22.5 | 0.00 | 1.52 | 0.00 | 47 | 1017.8 |
| 20260507140317 | 7 | 214 | 11.3 | 22.5 | 0.00 | 1.52 | 0.00 | 48 | 1017.9 |
| 20260507135818 | 7 | 200 | 9.7 | 17.7 | 0.00 | 1.52 | 0.00 | 49 | 1018.0 |
| 20260507135318 | 7 | 232 | 9.7 | 17.7 | 0.00 | 1.52 | 0.00 | 49 | 1018.0 |
| 20260507134817 | 7 | 206 | 12.9 | 22.5 | 0.00 | 1.52 | 0.00 | 50 | 1018.0 |
| 20260507134319 | 7 | 244 | 11.3 | 22.5 | 0.00 | 1.52 | 0.00 | 50 | 1018.0 |
| 20260507133819 | 6 | 205 | 8.0 | 17.7 | 0.00 | 1.52 | 0.00 | 50 | 1017.9 |
| 20260507133320 | 6 | 215 | 9.7 | 17.7 | 0.00 | 1.52 | 0.00 | 51 | 1017.8 |
| 20260507132823 | 6 | 216 | 11.3 | 17.7 | 0.00 | 1.52 | 0.00 | 51 | 1017.8 |
| 20260507132324 | 6 | 212 | 8.0 | 19.3 | 0.00 | 1.52 | 0.00 | 51 | 1017.8 |
| 20260507131817 | 6 | 210 | 9.7 | 19.3 | 0.00 | 1.52 | 0.00 | 51 | 1017.7 |
| 20260507131317 | 5 | 358 | 8.0 | 16.1 | 0.00 | 1.52 | 0.00 | 52 | 1017.8 |
| 20260507130818 | 5 | 215 | 8.0 | 16.1 | 0.00 | 1.52 | 0.00 | 53 | 1017.7 |
| 20260507130318 | 5 | 203 | 9.7 | 17.7 | 0.00 | 1.52 | 0.00 | 53 | 1017.7 |
| 20260507125839 | 5 | 358 | 8.0 | 20.9 | 0.00 | 1.52 | 0.00 | 54 | 1017.6 |
| 20260507125339 | 5 | 358 | 11.3 | 20.9 | 0.00 | 1.52 | 0.00 | 55 | 1017.5 |
| 20260507124821 | 4 | 358 | 8.0 | 16.1 | 0.00 | 1.52 | 0.00 | 55 | 1017.5 |
| 20260507124324 | 4 | 358 | 8.0 | 17.7 | 0.00 | 1.52 | 0.00 | 55 | 1017.5 |
| 20260507123846 | 4 | 358 | 9.7 | 17.7 | 0.00 | 1.52 | 0.00 | 55 | 1017.4 |
| 20260507123327 | 4 | 358 | 8.0 | 20.9 | 0.00 | 1.52 | 0.00 | 56 | 1017.4 |
| 20260507122826 | 3 | 358 | 11.3 | 20.9 | 0.00 | 1.52 | 0.00 | 55 | 1017.3 |
| 20260507122328 | 3 | 358 | 8.0 | 17.7 | 0.00 | 1.52 | 0.00 | 56 | 1017.4 |
| 20260507121831 | 3 | 358 | 6.4 | 12.9 | 0.00 | 1.52 | 0.00 | 56 | 1017.3 |
| 20260507121313 | 3 | 202 | 6.4 | 12.9 | 0.00 | 1.52 | 0.00 | 56 | 1017.4 |
| 20260507120813 | 3 | 180 | 9.7 | 16.1 | 0.00 | 1.52 | 0.00 | 56 | 1017.3 |
| 20260507120313 | 3 | 214 | 9.7 | 16.1 | 0.00 | 1.52 | 0.00 | 56 | 1017.3 |
| 20260507115813 | 3 | 200 | 9.7 | 16.1 | 0.00 | 1.52 | 0.00 | 56 | 1017.4 |
| 20260507115315 | 3 | 198 | 9.7 | 14.5 | 0.00 | 1.52 | 0.00 | 56 | 1017.3 |
| 20260507114814 | 3 | 198 | 9.7 | 19.3 | 0.00 | 1.52 | 0.00 | 56 | 1017.3 |
| 20260507114316 | 3 | 205 | 9.7 | 19.3 | 0.00 | 1.52 | 0.00 | 56 | 1017.3 |
| 20260507113816 | 3 | 192 | 11.3 | 17.7 | 0.00 | 1.52 | 0.00 | 56 | 1017.1 |
| 20260507113319 | 3 | 189 | 9.7 | 16.1 | 0.00 | 1.52 | 0.00 | 56 | 1017.1 |
| 20260507112821 | 3 | 205 | 8.0 | 16.1 | 0.00 | 1.52 | 0.00 | 56 | 1017.1 |
| 20260507111350 | 3 | 223 | 9.7 | 16.1 | 0.00 | 1.52 | 0.00 | 57 | 1017.0 |
| 20260507110831 | 3 | 179 | 9.7 | 16.1 | 0.00 | 1.52 | 0.00 | 58 | 1017.0 |
| 20260507110330 | 3 | 194 | 11.3 | 16.1 | 0.00 | 1.52 | 0.00 | 58 | 1017.1 |
| 20260507105813 | 3 | 186 | 9.7 | 16.1 | 0.00 | 1.52 | 0.00 | 59 | 1017.1 |
| 20260507105314 | 3 | 205 | 9.7 | 16.1 | 0.00 | 1.52 | 0.00 | 60 | 1017.0 |
| 20260507104815 | 3 | 162 | 9.7 | 14.5 | 0.00 | 1.52 | 0.00 | 60 | 1017.1 |
| 20260507104317 | 3 | 206 | 8.0 | 17.7 | 0.00 | 1.52 | 0.00 | 60 | 1017.2 |
| 20260507103819 | 3 | 217 | 9.7 | 17.7 | 0.00 | 1.52 | 0.00 | 60 | 1017.1 |
| 20260507103321 | 3 | 186 | 8.0 | 14.5 | 0.00 | 1.52 | 0.00 | 61 | 1017.2 |
| 20260507102822 | 3 | 200 | 8.0 | 14.5 | 0.00 | 1.52 | 0.00 | 60 | 1017.3 |
| 20260507102325 | 3 | 217 | 9.7 | 16.1 | 0.00 | 1.52 | 0.00 | 60 | 1017.3 |
| 20260507101826 | 3 | 207 | 8.0 | 14.5 | 0.00 | 1.52 | 0.00 | 59 | 1017.2 |
| 20260507101328 | 3 | 186 | 8.0 | 16.1 | 0.00 | 1.52 | 0.00 | 59 | 1017.4 |
| 20260507100830 | 3 | 196 | 9.7 | 16.1 | 0.00 | 1.52 | 0.00 | 60 | 1017.4 |
| 20260507100312 | 3 | 168 | 8.0 | 17.7 | 0.00 | 1.52 | 0.00 | 61 | 1017.4 |
| 20260507095814 | 3 | 207 | 9.7 | 16.1 | 0.00 | 1.52 | 0.00 | 62 | 1017.4 |
| 20260507095316 | 2 | 205 | 8.0 | 16.1 | 0.00 | 1.52 | 0.00 | 62 | 1017.5 |
| 20260507094817 | 2 | 224 | 11.3 | 16.1 | 0.00 | 1.52 | 0.00 | 63 | 1017.5 |
| 20260507094338 | 2 | 209 | 8.0 | 14.5 | 0.00 | 1.52 | 0.00 | 65 | 1017.5 |
| 20260507093839 | 2 | 215 | 9.7 | 16.1 | 0.00 | 1.52 | 0.00 | 65 | 1017.6 |
| 20260507093320 | 2 | 205 | 9.7 | 16.1 | 0.00 | 1.52 | 0.00 | 66 | 1017.6 |
| 20260507092822 | 2 | 198 | 8.0 | 16.1 | 0.00 | 1.52 | 0.00 | 67 | 1017.5 |
| 20260507092325 | 2 | 213 | 8.0 | 14.5 | 0.00 | 1.52 | 0.00 | 67 | 1017.7 |
| 20260507091826 | 2 | 192 | 8.0 | 16.1 | 0.00 | 1.52 | 0.00 | 68 | 1017.6 |
| 20260507091328 | 2 | 221 | 8.0 | 16.1 | 0.00 | 1.52 | 0.00 | 69 | 1017.5 |
| 20260507090828 | 2 | 202 | 9.7 | 16.1 | 0.00 | 1.52 | 0.00 | 69 | 1017.5 |
| 20260507090331 | 2 | 201 | 8.0 | 14.5 | 0.00 | 1.52 | 0.00 | 70 | 1017.5 |
| 20260507085833 | 2 | 199 | 9.7 | 16.1 | 0.00 | 1.52 | 0.00 | 70 | 1017.5 |
| 20260507085313 | 2 | 197 | 8.0 | 16.1 | 0.00 | 1.52 | 0.00 | 71 | 1017.5 |
| 20260507084815 | 2 | 207 | 8.0 | 14.5 | 0.00 | 1.52 | 0.00 | 72 | 1017.4 |
| 20260507084316 | 1 | 198 | 8.0 | 14.5 | 0.00 | 1.52 | 0.00 | 72 | 1017.6 |
| 20260507083816 | 1 | 188 | 8.0 | 17.7 | 0.00 | 1.52 | 0.00 | 73 | 1017.6 |
| 20260507083339 | 1 | 202 | 8.0 | 17.7 | 0.00 | 1.52 | 0.00 | 74 | 1017.5 |
| 20260507082819 | 1 | 218 | 6.4 | 12.9 | 0.00 | 1.52 | 0.00 | 75 | 1017.7 |
| 20260507082321 | 1 | 213 | 8.0 | 14.5 | 0.00 | 1.52 | 0.00 | 75 | 1017.8 |
| 20260507081842 | 1 | 202 | 6.4 | 12.9 | 0.00 | 1.52 | 0.00 | 76 | 1017.9 |
| 20260507081322 | 1 | 205 | 6.4 | 12.9 | 0.00 | 1.52 | 0.00 | 76 | 1018.0 |
| 20260507080824 | 1 | 225 | 6.4 | 14.5 | 0.00 | 1.52 | 0.00 | 76 | 1018.0 |
| 20260507080323 | 1 | 184 | 8.0 | 16.1 | 0.00 | 1.52 | 0.00 | 77 | 1017.9 |
| 20260507075824 | 1 | 198 | 9.7 | 19.3 | 0.00 | 1.52 | 0.00 | 78 | 1018.2 |
| 20260507075342 | 1 | 195 | 8.0 | 19.3 | 0.00 | 1.52 | 0.00 | 78 | 1018.2 |
| 20260507074824 | 1 | 196 | 8.0 | 14.5 | 0.00 | 1.52 | 0.00 | 78 | 1018.2 |
| 20260507074326 | 1 | 207 | 8.0 | 11.3 | 0.00 | 1.52 | 0.00 | 79 | 1018.3 |
| 20260507073814 | 1 | 201 | 6.4 | 12.9 | 0.00 | 1.52 | 0.00 | 79 | 1018.2 |
| 20260507073315 | 1 | 201 | 6.4 | 12.9 | 0.00 | 1.52 | 0.00 | 80 | 1018.4 |
| 20260507072817 | 1 | 198 | 6.4 | 12.9 | 0.00 | 1.52 | 0.00 | 80 | 1018.4 |
| 20260507072318 | 1 | 202 | 8.0 | 14.5 | 0.00 | 1.52 | 0.00 | 80 | 1018.5 |
| 20260507071821 | 1 | 206 | 8.0 | 14.5 | 0.00 | 1.52 | 0.00 | 80 | 1018.4 |
| 20260507071324 | 1 | 201 | 6.4 | 12.9 | 0.00 | 1.52 | 0.00 | 80 | 1018.4 |
| 20260507070826 | 1 | 203 | 6.4 | 16.1 | 0.00 | 1.52 | 0.00 | 80 | 1018.5 |
| 20260507070327 | 1 | 204 | 8.0 | 16.1 | 0.00 | 1.52 | 0.00 | 81 | 1018.5 |
| 20260507065829 | 1 | 199 | 8.0 | 14.5 | 0.00 | 1.52 | 0.00 | 81 | 1018.6 |
| 20260507065330 | 1 | 199 | 6.4 | 11.3 | 0.00 | 1.52 | 0.00 | 81 | 1018.5 |
| 20260507064811 | 1 | 200 | 8.0 | 12.9 | 0.00 | 1.52 | 0.00 | 81 | 1018.5 |
| 20260507064314 | 1 | 202 | 8.0 | 12.9 | 0.00 | 1.52 | 0.00 | 80 | 1018.4 |
| 20260507063836 | 1 | 203 | 6.4 | 11.3 | 0.00 | 1.52 | 0.00 | 80 | 1018.5 |
| 20260507063315 | 1 | 203 | 8.0 | 11.3 | 0.00 | 1.52 | 0.00 | 81 | 1018.5 |
| 20260507062816 | 1 | 203 | 6.4 | 11.3 | 0.00 | 1.52 | 0.00 | 82 | 1018.5 |
| 20260507062317 | 1 | 203 | 6.4 | 11.3 | 0.00 | 1.52 | 0.00 | 82 | 1018.5 |
| 20260507061820 | 1 | 201 | 4.8 | 9.7 | 0.00 | 1.52 | 0.00 | 83 | 1018.6 |
| 20260507061319 | 1 | 202 | 4.8 | 9.7 | 0.00 | 1.52 | 0.00 | 83 | 1018.6 |
| 20260507060820 | 1 | 202 | 4.8 | 9.7 | 0.00 | 1.52 | 0.00 | 83 | 1018.6 |
| 20260507060323 | 1 | 202 | 4.8 | 11.3 | 0.00 | 1.52 | 0.00 | 83 | 1018.6 |
| 20260507055824 | 1 | 202 | 4.8 | 9.7 | 0.00 | 1.52 | 1.52 | 83 | 1018.6 |
| 20260507055311 | 1 | 202 | 4.8 | 9.7 | 0.00 | 1.52 | 1.52 | 83 | 1018.6 |
| 20260507054814 | 1 | 202 | 4.8 | 8.0 | 0.00 | 1.52 | 1.52 | 83 | 1018.7 |
| 20260507054318 | 1 | 202 | 4.8 | 8.0 | 0.00 | 1.52 | 1.52 | 83 | 1018.7 |
| 20260507053821 | 1 | 202 | 4.8 | 9.7 | 0.00 | 1.52 | 1.52 | 83 | 1018.8 |
| 20260507053325 | 1 | 203 | 6.4 | 9.7 | 0.00 | 1.52 | 1.52 | 83 | 1018.9 |
| 20260507052830 | 1 | 202 | 4.8 | 9.7 | 0.00 | 1.52 | 1.52 | 83 | 1018.9 |
| 20260507052333 | 1 | 203 | 4.8 | 11.3 | 0.00 | 1.52 | 1.52 | 82 | 1018.9 |
| 20260507051816 | 1 | 203 | 4.8 | 11.3 | 0.00 | 1.52 | 1.52 | 82 | 1018.8 |
| 20260507051319 | 1 | 202 | 4.8 | 11.3 | 0.00 | 1.52 | 1.52 | 83 | 1018.9 |
| 20260507050838 | 1 | 202 | 4.8 | 11.3 | 0.00 | 1.52 | 1.52 | 83 | 1018.8 |
| 20260507050321 | 1 | 203 | 6.4 | 11.3 | 0.00 | 1.52 | 1.52 | 83 | 1018.8 |
| 20260507045825 | 1 | 205 | 4.8 | 8.0 | 0.00 | 1.55 | 1.52 | 83 | 1018.9 |
| 20260507045346 | 1 | 205 | 3.2 | 12.9 | 0.00 | 1.55 | 1.52 | 82 | 1018.9 |
| 20260507044829 | 1 | 205 | 6.4 | 12.9 | 0.00 | 1.55 | 1.52 | 82 | 1018.9 |
| 20260507044331 | 1 | 206 | 6.4 | 14.5 | 0.00 | 1.55 | 1.52 | 82 | 1018.9 |
| 20260507043814 | 2 | 201 | 8.0 | 14.5 | 0.00 | 1.55 | 1.52 | 82 | 1018.8 |
| 20260507043317 | 2 | 209 | 8.0 | 12.9 | 0.00 | 1.55 | 1.52 | 82 | 1018.8 |
| 20260507042821 | 2 | 208 | 4.8 | 9.7 | 0.00 | 1.55 | 1.52 | 82 | 1018.9 |
| 20260507042323 | 2 | 207 | 6.4 | 9.7 | 0.00 | 1.55 | 1.52 | 82 | 1018.9 |
| 20260507041828 | 2 | 207 | 3.2 | 8.0 | 0.00 | 1.55 | 1.52 | 82 | 1018.9 |
| 20260507041352 | 2 | 207 | 3.2 | 9.7 | 0.00 | 1.55 | 1.52 | 82 | 1019.0 |
| 20260507040815 | 2 | 207 | 4.8 | 9.7 | 0.00 | 1.55 | 1.52 | 82 | 1018.9 |
| 20260507040318 | 2 | 206 | 4.8 | 11.3 | 0.00 | 1.55 | 1.52 | 82 | 1018.9 |
| 20260507035821 | 2 | 206 | 4.8 | 11.3 | 0.00 | 1.55 | 1.52 | 82 | 1018.8 |
| 20260507035324 | 2 | 205 | 4.8 | 9.7 | 0.00 | 1.55 | 1.52 | 82 | 1018.8 |
| 20260507034827 | 2 | 205 | 6.4 | 9.7 | 0.00 | 1.55 | 1.52 | 83 | 1018.7 |
| 20260507034330 | 1 | 208 | 3.2 | 6.4 | 0.00 | 1.55 | 1.52 | 83 | 1018.8 |
| 20260507033328 | 1 | 207 | 1.6 | 6.4 | 0.00 | 1.55 | 1.52 | 82 | 1018.7 |
| 20260507032830 | 1 | 207 | 0.0 | 6.4 | 0.00 | 1.55 | 1.52 | 82 | 1018.7 |
| 20260507032331 | 1 | 207 | 3.2 | 6.4 | 0.00 | 1.55 | 1.52 | 82 | 1018.7 |
| 20260507031812 | 1 | 207 | 1.6 | 3.2 | 0.00 | 1.55 | 1.52 | 82 | 1018.8 |
| 20260507031315 | 2 | 207 | 1.6 | 3.2 | 0.00 | 1.55 | 1.52 | 81 | 1018.7 |
| 20260507030816 | 2 | 207 | 0.0 | 3.2 | 0.00 | 1.55 | 1.52 | 80 | 1018.6 |
| 20260507030338 | 2 | 207 | 1.6 | 6.4 | 0.00 | 1.55 | 1.52 | 80 | 1018.7 |
| 20260507025819 | 2 | 207 | 1.6 | 6.4 | 0.00 | 1.55 | 1.52 | 79 | 1018.6 |
| 20260507025320 | 2 | 207 | 1.6 | 4.8 | 0.00 | 1.55 | 1.52 | 79 | 1018.6 |
| 20260507024822 | 2 | 207 | 1.6 | 4.8 | 0.00 | 1.55 | 1.52 | 79 | 1018.6 |
| 20260507024325 | 2 | 207 | 1.6 | 6.4 | 0.00 | 1.55 | 1.52 | 79 | 1018.6 |
| 20260507023827 | 2 | 208 | 1.6 | 8.0 | 0.00 | 1.55 | 1.52 | 78 | 1018.4 |
| 20260507023330 | 2 | 209 | 1.6 | 8.0 | 0.00 | 1.55 | 1.52 | 78 | 1018.4 |
| 20260507022851 | 2 | 209 | 1.6 | 6.4 | 0.00 | 1.55 | 1.52 | 77 | 1018.4 |
| 20260507022313 | 2 | 209 | 0.0 | 6.4 | 0.00 | 1.55 | 1.52 | 77 | 1018.5 |
| 20260507021814 | 2 | 209 | 0.0 | 9.7 | 0.00 | 1.55 | 1.52 | 76 | 1018.5 |
| 20260507021337 | 2 | 208 | 4.8 | 9.7 | 0.00 | 1.55 | 1.52 | 76 | 1018.5 |
| 20260507020819 | 2 | 209 | 3.2 | 8.0 | 0.00 | 1.55 | 1.52 | 75 | 1018.4 |
| 20260507020322 | 3 | 209 | 4.8 | 9.7 | 0.00 | 1.55 | 1.52 | 75 | 1018.4 |
| 20260507015823 | 3 | 213 | 4.8 | 9.7 | 0.00 | 1.55 | 1.52 | 74 | 1018.4 |
| 20260507015343 | 3 | 214 | 3.2 | 9.7 | 0.00 | 1.55 | 1.52 | 73 | 1018.5 |
| 20260507014825 | 3 | 215 | 3.2 | 8.0 | 0.00 | 1.55 | 1.52 | 73 | 1018.6 |
| 20260507014329 | 3 | 215 | 4.8 | 9.7 | 0.00 | 1.55 | 1.52 | 71 | 1018.6 |
| 20260507013830 | 3 | 358 | 4.8 | 9.7 | 0.00 | 1.55 | 1.52 | 70 | 1018.6 |
| 20260507013331 | 3 | 358 | 3.2 | 8.0 | 0.00 | 1.55 | 1.52 | 70 | 1018.7 |
| 20260507012814 | 3 | 358 | 3.2 | 12.9 | 0.00 | 1.55 | 1.52 | 70 | 1018.8 |
| 20260507012316 | 4 | 221 | 6.4 | 12.9 | 0.00 | 1.55 | 1.52 | 70 | 1018.7 |
| 20260507011838 | 4 | 358 | 3.2 | 8.0 | 0.00 | 1.55 | 1.52 | 70 | 1018.7 |
| 20260507011340 | 4 | 358 | 3.2 | 9.7 | 0.00 | 1.55 | 1.52 | 70 | 1018.8 |
| 20260507010843 | 4 | 358 | 4.8 | 9.7 | 0.00 | 1.55 | 1.52 | 68 | 1018.9 |
| 20260507010324 | 4 | 190 | 4.8 | 9.7 | 0.00 | 1.55 | 1.52 | 68 | 1018.9 |
| 20260507005841 | 4 | 193 | 4.8 | 9.7 | 0.00 | 1.55 | 1.52 | 68 | 1018.9 |
| 20260507005322 | 4 | 200 | 3.2 | 9.7 | 0.00 | 1.55 | 1.52 | 69 | 1018.9 |
| 20260507004846 | 4 | 200 | 4.8 | 11.3 | 0.00 | 1.55 | 1.52 | 68 | 1018.8 |
| 20260507004326 | 4 | 195 | 4.8 | 9.7 | 0.00 | 1.55 | 1.52 | 67 | 1018.9 |
| 20260507003828 | 4 | 358 | 4.8 | 8.0 | 0.00 | 1.55 | 1.52 | 67 | 1019.0 |
| 20260507003329 | 4 | 358 | 4.8 | 9.7 | 0.00 | 1.55 | 1.52 | 69 | 1019.0 |
| 20260507002812 | 3 | 188 | 4.8 | 9.7 | 0.00 | 1.55 | 1.52 | 69 | 1019.1 |
| 20260507002335 | 3 | 190 | 6.4 | 9.7 | 0.00 | 1.55 | 1.52 | 69 | 1019.0 |
| 20260507001815 | 4 | 358 | 3.2 | 9.7 | 0.00 | 1.55 | 1.52 | 69 | 1019.1 |
| 20260507001335 | 4 | 198 | 4.8 | 12.9 | 0.00 | 1.55 | 1.52 | 68 | 1019.1 |
| 20260507000834 | 4 | 358 | 3.2 | 12.9 | 0.00 | 1.55 | 1.52 | 69 | 1019.2 |
| 20260507000315 | 4 | 358 | 3.2 | 6.4 | 0.00 | 1.55 | 1.52 | 69 | 1019.1 |
| 20260506235816 | 3 | 358 | 4.8 | 9.7 | 0.00 | 1.55 | 1.52 | 68 | 1019.2 |
| 20260506235319 | 4 | 197 | 4.8 | 9.7 | 0.00 | 1.55 | 1.52 | 70 | 1019.2 |
| 20260506234820 | 3 | 188 | 4.8 | 11.3 | 0.03 | 1.55 | 1.52 | 70 | 1019.1 |
| 20260506234322 | 3 | 177 | 3.2 | 11.3 | 0.03 | 1.55 | 1.52 | 70 | 1019.1 |
| 20260506233823 | 3 | 180 | 6.4 | 11.3 | 0.03 | 1.55 | 1.52 | 71 | 1019.1 |
| 20260506233325 | 3 | 184 | 3.2 | 12.9 | 0.03 | 1.55 | 1.52 | 70 | 1019.2 |
| 20260506232825 | 3 | 159 | 4.8 | 12.9 | 0.03 | 1.55 | 1.52 | 70 | 1019.1 |
| 20260506232328 | 3 | 358 | 4.8 | 9.7 | 0.03 | 1.55 | 1.52 | 70 | 1019.1 |
| 20260506231851 | 3 | 358 | 3.2 | 8.0 | 0.03 | 1.55 | 1.52 | 69 | 1019.3 |
| 20260506231312 | 3 | 193 | 3.2 | 8.0 | 0.03 | 1.55 | 1.52 | 70 | 1019.3 |
| 20260506230813 | 3 | 358 | 4.8 | 9.7 | 0.05 | 1.55 | 1.52 | 71 | 1019.3 |
| 20260506230316 | 3 | 358 | 3.2 | 9.7 | 0.05 | 1.55 | 1.52 | 72 | 1019.3 |
| 20260506225817 | 2 | 358 | 3.2 | 9.7 | 0.05 | 1.80 | 1.52 | 72 | 1019.4 |
| 20260506225315 | 3 | 358 | 6.4 | 9.7 | 0.03 | 1.78 | 1.50 | 72 | 1019.4 |
| 20260506224818 | 3 | 358 | 3.2 | 8.0 | 0.05 | 1.78 | 1.50 | 72 | 1019.4 |
| 20260506224320 | 3 | 179 | 3.2 | 8.0 | 0.05 | 1.78 | 1.50 | 72 | 1019.5 |
| 20260506223819 | 3 | 358 | 3.2 | 9.7 | 0.05 | 1.78 | 1.50 | 75 | 1019.5 |
| 20260506223342 | 2 | 358 | 3.2 | 9.7 | 0.08 | 1.78 | 1.50 | 74 | 1019.7 |
| 20260506222824 | 2 | 358 | 0.0 | 8.0 | 0.08 | 1.78 | 1.50 | 75 | 1019.7 |
| 20260506222346 | 2 | 358 | 4.8 | 8.0 | 0.10 | 1.78 | 1.50 | 76 | 1019.8 |
| 20260506221848 | 2 | 358 | 1.6 | 4.8 | 0.10 | 1.78 | 1.50 | 76 | 1019.9 |
| 20260506221328 | 2 | 358 | 1.6 | 4.8 | 0.13 | 1.78 | 1.50 | 76 | 1019.9 |
| 20260506220830 | 2 | 358 | 1.6 | 4.8 | 0.13 | 1.75 | 1.47 | 75 | 1020.0 |
| 20260506220330 | 2 | 358 | 1.6 | 6.4 | 0.13 | 1.75 | 1.47 | 76 | 1020.1 |
| 20260506215811 | 2 | 358 | 0.0 | 4.8 | 0.15 | 1.80 | 1.47 | 77 | 1020.1 |
| 20260506215334 | 2 | 175 | 3.2 | 4.8 | 0.18 | 1.80 | 1.47 | 78 | 1020.1 |
| 20260506214813 | 2 | 358 | 1.6 | 6.4 | 0.18 | 1.78 | 1.45 | 79 | 1020.1 |
| 20260506214314 | 2 | 358 | 1.6 | 6.4 | 0.20 | 1.78 | 1.45 | 77 | 1020.1 |
| 20260506213816 | 2 | 358 | 4.8 | 6.4 | 0.23 | 1.78 | 1.45 | 77 | 1020.1 |
| 20260506213318 | 2 | 358 | 3.2 | 6.4 | 0.23 | 1.75 | 1.42 | 76 | 1020.2 |
| 20260506212823 | 2 | 358 | 3.2 | 6.4 | 0.25 | 1.75 | 1.42 | 76 | 1020.3 |
| 20260506212324 | 2 | 358 | 3.2 | 8.0 | 0.25 | 1.73 | 1.40 | 77 | 1020.3 |
| 20260506211826 | 2 | 358 | 3.2 | 8.0 | 0.28 | 1.73 | 1.40 | 77 | 1020.3 |
| 20260506211327 | 2 | 358 | 4.8 | 9.7 | 0.30 | 1.70 | 1.37 | 77 | 1020.4 |
| 20260506210827 | 2 | 358 | 1.6 | 6.4 | 0.36 | 1.68 | 1.35 | 79 | 1020.5 |
| 20260506210327 | 2 | 122 | 1.6 | 6.4 | 0.38 | 1.65 | 1.32 | 78 | 1020.6 |
| 20260506205827 | 2 | 358 | 3.2 | 6.4 | 0.43 | 1.70 | 1.32 | 78 | 1020.6 |
| 20260506205329 | 2 | 358 | 1.6 | 6.4 | 0.46 | 1.68 | 1.30 | 77 | 1020.7 |
| 20260506204830 | 2 | 358 | 4.8 | 6.4 | 0.51 | 1.65 | 1.27 | 79 | 1020.7 |
| 20260506204332 | 1 | 358 | 1.6 | 4.8 | 0.53 | 1.63 | 1.24 | 81 | 1020.8 |
| 20260506203814 | 1 | 112 | 1.6 | 4.8 | 0.53 | 1.60 | 1.22 | 80 | 1020.8 |
| 20260506203316 | 1 | 112 | 3.2 | 9.7 | 0.53 | 1.57 | 1.19 | 80 | 1020.8 |
| 20260506202818 | 1 | 358 | 6.4 | 9.7 | 0.53 | 1.55 | 1.17 | 79 | 1020.9 |
| 20260506202319 | 1 | 358 | 3.2 | 9.7 | 0.53 | 1.52 | 1.14 | 80 | 1020.8 |
| 20260506201842 | 2 | 358 | 3.2 | 9.7 | 0.51 | 1.47 | 1.09 | 79 | 1020.9 |
| 20260506201321 | 2 | 358 | 1.6 | 9.7 | 0.51 | 1.45 | 1.07 | 84 | 1020.9 |
| 20260506200821 | 1 | 358 | 4.8 | 9.7 | 0.46 | 1.37 | 0.99 | 83 | 1020.9 |
| 20260506200343 | 1 | 110 | 1.6 | 9.7 | 0.43 | 1.32 | 0.94 | 85 | 1021.0 |
| 20260506195823 | 1 | 358 | 4.8 | 9.7 | 0.41 | 1.27 | 0.89 | 87 | 1021.0 |
| 20260506195324 | 1 | 86 | 4.8 | 9.7 | 0.36 | 1.19 | 0.81 | 88 | 1021.0 |
| 20260506194823 | 1 | 42 | 1.6 | 6.4 | 0.33 | 1.14 | 0.76 | 88 | 1021.0 |
| 20260506194346 | 1 | 358 | 0.0 | 0.0 | 0.30 | 1.09 | 0.71 | 88 | 1021.1 |
| 20260506193826 | 1 | 358 | 0.0 | 0.0 | 0.30 | 1.07 | 0.69 | 88 | 1021.1 |